Year,Month,Day,Hour,Minute,Value (Times are PST for temperature in C)
2011,07,24,00,02,15.50
2011,07,24,00,04,15.50
2011,07,24,00,05,15.30
2011,07,24,00,06,15.30
2011,07,24,00,07,15.30
2011,07,24,00,09,15.20
2011,07,24,00,10,15.20
2011,07,24,00,11,15.10
2011,07,24,00,12,15.10
2011,07,24,00,13,15.10
2011,07,24,00,14,15.00
2011,07,24,00,15,14.90
2011,07,24,00,16,14.90
2011,07,24,00,18,14.90
2011,07,24,00,19,14.90
2011,07,24,00,20,14.90
2011,07,24,00,21,14.90
2011,07,24,00,22,14.90
2011,07,24,00,23,14.90
2011,07,24,00,24,14.90
2011,07,24,00,25,14.90
2011,07,24,00,26,14.90
2011,07,24,00,28,14.90
2011,07,24,00,29,14.90
2011,07,24,00,30,14.80
2011,07,24,00,31,14.80
2011,07,24,00,33,14.80
2011,07,24,00,34,14.80
2011,07,24,00,35,14.80
2011,07,24,00,36,14.70
2011,07,24,00,37,14.70
2011,07,24,00,38,14.70
2011,07,24,00,39,14.70
2011,07,24,00,40,14.70
2011,07,24,00,41,14.70
2011,07,24,00,43,14.70
2011,07,24,00,44,14.70
2011,07,24,00,45,14.70
2011,07,24,00,46,14.60
2011,07,24,00,47,14.60
2011,07,24,00,48,14.60
2011,07,24,00,49,14.60
2011,07,24,00,50,14.50
2011,07,24,00,51,14.50
2011,07,24,00,52,14.50
2011,07,24,00,53,14.40
2011,07,24,00,54,14.40
2011,07,24,00,55,14.40
2011,07,24,00,56,14.40
2011,07,24,00,57,14.30
2011,07,24,00,58,14.30
2011,07,24,00,59,14.30
2011,07,24,01,00,14.30
2011,07,24,01,01,14.30
2011,07,24,01,02,14.20
2011,07,24,01,04,14.20
2011,07,24,01,05,14.20
2011,07,24,01,06,14.20
2011,07,24,01,07,14.20
2011,07,24,01,08,14.10
2011,07,24,01,10,14.10
2011,07,24,01,11,14.00
2011,07,24,01,12,14.00
2011,07,24,01,13,13.90
2011,07,24,01,15,13.90
2011,07,24,01,16,13.90
2011,07,24,01,17,13.90
2011,07,24,01,18,13.90
2011,07,24,01,20,13.90
2011,07,24,01,21,13.90
2011,07,24,01,22,13.90
2011,07,24,01,23,13.90
2011,07,24,01,25,13.90
2011,07,24,01,26,13.80
2011,07,24,01,27,13.80
2011,07,24,01,29,13.80
2011,07,24,01,30,13.80
2011,07,24,01,31,13.80
2011,07,24,01,32,13.80
2011,07,24,01,33,13.80
2011,07,24,01,34,13.80
2011,07,24,01,35,13.80
2011,07,24,01,37,13.80
2011,07,24,01,38,13.80
2011,07,24,01,39,13.80
2011,07,24,01,40,13.80
2011,07,24,01,41,13.80
2011,07,24,01,43,13.80
2011,07,24,01,44,13.80
2011,07,24,01,45,13.70
2011,07,24,01,46,13.70
2011,07,24,01,48,13.70
2011,07,24,01,49,13.70
2011,07,24,01,50,13.60
2011,07,24,01,51,13.60
2011,07,24,01,52,13.60
2011,07,24,01,53,13.60
2011,07,24,01,54,13.50
2011,07,24,01,55,13.50
2011,07,24,01,56,13.40
2011,07,24,01,57,13.40
2011,07,24,01,58,13.40
2011,07,24,01,59,13.40
2011,07,24,02,01,13.30
2011,07,24,02,02,13.30
2011,07,24,02,03,13.30
2011,07,24,02,04,13.30
2011,07,24,02,05,13.30
2011,07,24,02,06,13.20
2011,07,24,02,08,13.20
2011,07,24,02,09,13.20
2011,07,24,02,10,13.20
2011,07,24,02,11,13.20
2011,07,24,02,13,13.20
2011,07,24,02,14,13.10
2011,07,24,02,15,13.10
2011,07,24,02,16,13.10
2011,07,24,02,17,13.10
2011,07,24,02,18,13.10
2011,07,24,02,19,13.10
2011,07,24,02,20,13.10
2011,07,24,02,21,13.10
2011,07,24,02,23,13.10
2011,07,24,02,24,13.10
2011,07,24,02,25,13.10
2011,07,24,02,26,13.10
2011,07,24,02,28,13.10
2011,07,24,02,29,13.10
2011,07,24,02,30,13.10
2011,07,24,02,31,13.10
2011,07,24,02,32,13.10
2011,07,24,02,33,13.10
2011,07,24,02,34,13.10
2011,07,24,02,35,13.00
2011,07,24,02,37,13.00
2011,07,24,02,38,12.90
2011,07,24,02,39,12.90
2011,07,24,02,40,12.90
2011,07,24,02,41,12.90
2011,07,24,02,42,12.90
2011,07,24,02,43,12.80
2011,07,24,02,44,12.80
2011,07,24,02,45,12.80
2011,07,24,02,47,12.80
2011,07,24,02,48,12.80
2011,07,24,02,49,12.70
2011,07,24,02,50,12.70
2011,07,24,02,52,12.70
2011,07,24,02,53,12.70
2011,07,24,02,54,12.60
2011,07,24,02,55,12.60
2011,07,24,02,57,12.60
2011,07,24,02,58,12.60
2011,07,24,02,59,12.60
2011,07,24,03,01,12.60
2011,07,24,03,02,12.60
2011,07,24,03,03,12.60
2011,07,24,03,04,12.60
2011,07,24,03,05,12.60
2011,07,24,03,07,12.60
2011,07,24,03,08,12.60
2011,07,24,03,09,12.60
2011,07,24,03,11,12.70
2011,07,24,03,12,12.70
2011,07,24,03,13,12.70
2011,07,24,03,14,12.70
2011,07,24,03,16,12.80
2011,07,24,03,17,12.80
2011,07,24,03,18,12.80
2011,07,24,03,20,12.90
2011,07,24,03,21,12.90
2011,07,24,03,22,12.90
2011,07,24,03,23,12.90
2011,07,24,03,24,12.90
2011,07,24,03,26,12.80
2011,07,24,03,27,12.80
2011,07,24,03,28,12.80
2011,07,24,03,29,12.80
2011,07,24,03,30,12.80
2011,07,24,03,32,12.70
2011,07,24,03,33,12.70
2011,07,24,03,34,12.70
2011,07,24,03,35,12.70
2011,07,24,03,37,12.70
2011,07,24,03,38,12.70
2011,07,24,03,39,12.70
2011,07,24,03,41,12.70
2011,07,24,03,42,12.70
2011,07,24,03,43,12.60
2011,07,24,03,44,12.60
2011,07,24,03,46,12.60
2011,07,24,03,47,12.60
2011,07,24,03,48,12.60
2011,07,24,03,50,12.60
2011,07,24,03,51,12.60
2011,07,24,03,52,12.50
2011,07,24,03,53,12.40
2011,07,24,03,55,12.40
2011,07,24,03,56,12.40
2011,07,24,03,57,12.40
2011,07,24,03,58,12.40
2011,07,24,04,00,12.40
2011,07,24,04,01,12.40
2011,07,24,04,02,12.50
2011,07,24,04,03,12.50
2011,07,24,04,05,12.60
2011,07,24,04,06,12.60
2011,07,24,04,07,12.60
2011,07,24,04,08,12.60
2011,07,24,04,10,12.50
2011,07,24,04,11,12.40
2011,07,24,04,12,12.40
2011,07,24,04,13,12.40
2011,07,24,04,14,12.30
2011,07,24,04,16,12.30
2011,07,24,04,17,12.30
2011,07,24,04,18,12.30
2011,07,24,04,20,12.30
2011,07,24,04,21,12.30
2011,07,24,04,22,12.40
2011,07,24,04,23,12.40
2011,07,24,04,25,12.40
2011,07,24,04,26,12.40
2011,07,24,04,27,12.40
2011,07,24,04,29,12.40
2011,07,24,04,30,12.40
2011,07,24,04,31,12.40
2011,07,24,04,32,12.40
2011,07,24,04,34,12.40
2011,07,24,04,35,12.40
2011,07,24,04,36,12.50
2011,07,24,04,38,12.50
2011,07,24,04,39,12.50
2011,07,24,04,40,12.50
2011,07,24,04,42,12.50
2011,07,24,04,43,12.50
2011,07,24,04,44,12.50
2011,07,24,04,45,12.50
2011,07,24,04,47,12.60
2011,07,24,04,48,12.50
2011,07,24,04,49,12.50
2011,07,24,04,51,12.60
2011,07,24,04,52,12.50
2011,07,24,04,53,12.60
2011,07,24,04,55,12.60
2011,07,24,04,56,12.60
2011,07,24,04,57,12.70
2011,07,24,04,59,12.70
2011,07,24,05,00,12.80
2011,07,24,05,01,12.90
2011,07,24,05,02,12.90
2011,07,24,05,03,13.00
2011,07,24,05,04,13.10
2011,07,24,05,05,13.20
2011,07,24,05,06,13.20
2011,07,24,05,07,13.30
2011,07,24,05,09,13.30
2011,07,24,05,10,13.30
2011,07,24,05,11,13.30
2011,07,24,05,13,13.30
2011,07,24,05,14,13.30
2011,07,24,05,15,13.30
2011,07,24,05,16,13.30
2011,07,24,05,18,13.30
2011,07,24,05,19,13.20
2011,07,24,05,20,13.20
2011,07,24,05,21,13.20
2011,07,24,05,23,13.20
2011,07,24,05,24,13.30
2011,07,24,05,25,13.30
2011,07,24,05,26,13.20
2011,07,24,05,28,13.20
2011,07,24,05,29,13.20
2011,07,24,05,30,13.20
2011,07,24,05,31,13.10
2011,07,24,05,32,13.10
2011,07,24,05,33,13.00
2011,07,24,05,34,12.90
2011,07,24,05,35,12.90
2011,07,24,05,36,13.00
2011,07,24,05,37,13.00
2011,07,24,05,38,13.10
2011,07,24,05,39,13.10
2011,07,24,05,40,13.20
2011,07,24,05,41,13.20
2011,07,24,05,42,13.30
2011,07,24,05,43,13.30
2011,07,24,05,44,13.40
2011,07,24,05,45,13.40
2011,07,24,05,46,13.40
2011,07,24,05,47,13.40
2011,07,24,05,48,13.40
2011,07,24,05,49,13.50
2011,07,24,05,50,13.50
2011,07,24,05,51,13.60
2011,07,24,05,52,13.60
2011,07,24,05,53,13.60
2011,07,24,05,54,13.60
2011,07,24,05,55,13.60
2011,07,24,05,56,13.70
2011,07,24,05,57,13.70
2011,07,24,05,58,13.70
2011,07,24,05,59,13.70
2011,07,24,06,00,13.80
2011,07,24,06,01,13.80
2011,07,24,06,02,13.80
2011,07,24,06,03,13.90
2011,07,24,06,04,13.90
2011,07,24,06,05,14.00
2011,07,24,06,06,14.00
2011,07,24,06,07,14.00
2011,07,24,06,08,14.00
2011,07,24,06,09,14.00
2011,07,24,06,10,13.90
2011,07,24,06,11,13.90
2011,07,24,06,12,13.80
2011,07,24,06,13,13.80
2011,07,24,06,14,13.80
2011,07,24,06,15,13.80
2011,07,24,06,16,13.80
2011,07,24,06,17,13.90
2011,07,24,06,18,14.00
2011,07,24,06,19,14.10
2011,07,24,06,20,14.20
2011,07,24,06,21,14.30
2011,07,24,06,22,14.40
2011,07,24,06,23,14.50
2011,07,24,06,24,14.60
2011,07,24,06,25,14.70
2011,07,24,06,26,14.70
2011,07,24,06,27,14.80
2011,07,24,06,28,14.80
2011,07,24,06,29,14.80
2011,07,24,06,30,14.80
2011,07,24,06,31,14.80
2011,07,24,06,32,14.80
2011,07,24,06,33,14.80
2011,07,24,06,35,14.90
2011,07,24,06,36,14.90
2011,07,24,06,37,14.90
2011,07,24,06,38,14.90
2011,07,24,06,40,14.90
2011,07,24,06,41,14.90
2011,07,24,06,42,14.90
2011,07,24,06,44,14.90
2011,07,24,06,45,14.90
2011,07,24,06,46,14.90
2011,07,24,06,47,14.90
2011,07,24,06,49,14.90
2011,07,24,06,50,14.90
2011,07,24,06,51,14.90
2011,07,24,06,52,14.90
2011,07,24,06,53,15.00
2011,07,24,06,55,15.10
2011,07,24,06,56,15.10
2011,07,24,06,57,15.10
2011,07,24,06,58,15.20
2011,07,24,06,59,15.20
2011,07,24,07,01,15.30
2011,07,24,07,02,15.30
2011,07,24,07,03,15.30
2011,07,24,07,04,15.40
2011,07,24,07,06,15.40
2011,07,24,07,07,15.40
2011,07,24,07,08,15.40
2011,07,24,07,09,15.40
2011,07,24,07,10,15.30
2011,07,24,07,12,15.30
2011,07,24,07,13,15.20
2011,07,24,07,14,15.20
2011,07,24,07,16,15.20
2011,07,24,07,17,15.20
2011,07,24,07,18,15.20
2011,07,24,07,20,15.30
2011,07,24,07,21,15.30
2011,07,24,07,22,15.40
2011,07,24,07,23,15.40
2011,07,24,07,24,15.50
2011,07,24,07,25,15.60
2011,07,24,07,26,15.70
2011,07,24,07,27,15.70
2011,07,24,07,29,15.80
2011,07,24,07,30,15.90
2011,07,24,07,31,16.00
2011,07,24,07,33,16.20
2011,07,24,07,34,16.30
2011,07,24,07,35,16.40
2011,07,24,07,36,16.60
2011,07,24,07,38,16.70
2011,07,24,07,39,16.80
2011,07,24,07,40,16.90
2011,07,24,07,41,16.90
2011,07,24,07,43,17.10
2011,07,24,07,44,17.20
2011,07,24,07,45,17.20
2011,07,24,07,47,17.30
2011,07,24,07,48,17.40
2011,07,24,07,49,17.40
2011,07,24,07,50,17.40
2011,07,24,07,52,17.50
2011,07,24,07,53,17.60
2011,07,24,07,54,17.70
2011,07,24,07,55,17.70
2011,07,24,07,56,17.70
2011,07,24,07,58,17.80
2011,07,24,07,59,17.80
2011,07,24,08,00,17.80
2011,07,24,08,01,17.90
2011,07,24,08,03,17.90
2011,07,24,08,04,17.90
2011,07,24,08,05,18.00
2011,07,24,08,07,18.10
2011,07,24,08,08,18.10
2011,07,24,08,09,18.20
2011,07,24,08,10,18.20
2011,07,24,08,12,18.20
2011,07,24,08,13,18.30
2011,07,24,08,14,18.30
2011,07,24,08,15,18.30
2011,07,24,08,16,18.30
2011,07,24,08,17,18.30
2011,07,24,08,18,18.30
2011,07,24,08,19,18.30
2011,07,24,08,20,18.30
2011,07,24,08,22,18.30
2011,07,24,08,23,18.40
2011,07,24,08,24,18.40
2011,07,24,08,26,18.40
2011,07,24,08,27,18.40
2011,07,24,08,28,18.30
2011,07,24,08,29,18.40
2011,07,24,08,30,18.40
2011,07,24,08,32,18.30
2011,07,24,08,33,18.30
2011,07,24,08,34,18.40
2011,07,24,08,35,18.40
2011,07,24,08,37,18.40
2011,07,24,08,38,18.40
2011,07,24,08,39,18.40
2011,07,24,08,40,18.40
2011,07,24,08,42,18.40
2011,07,24,08,43,18.40
2011,07,24,08,44,18.40
2011,07,24,08,45,18.40
2011,07,24,08,47,18.40
2011,07,24,08,48,18.40
2011,07,24,08,49,18.40
2011,07,24,08,50,18.40
2011,07,24,08,52,18.40
2011,07,24,08,53,18.50
2011,07,24,08,54,18.50
2011,07,24,08,55,18.60
2011,07,24,08,57,18.60
2011,07,24,08,58,18.60
2011,07,24,08,59,18.60
2011,07,24,09,00,18.60
2011,07,24,09,02,18.60
2011,07,24,09,03,18.60
2011,07,24,09,04,18.60
2011,07,24,09,06,18.60
2011,07,24,09,07,18.70
2011,07,24,09,08,18.70
2011,07,24,09,09,18.70
2011,07,24,09,10,18.70
2011,07,24,09,12,18.70
2011,07,24,09,13,18.70
2011,07,24,09,14,18.80
2011,07,24,09,15,18.80
2011,07,24,09,16,18.80
2011,07,24,09,18,18.80
2011,07,24,09,19,18.80
2011,07,24,09,20,18.70
2011,07,24,09,21,18.80
2011,07,24,09,23,18.80
2011,07,24,09,24,18.80
2011,07,24,09,25,18.80
2011,07,24,09,26,18.80
2011,07,24,09,28,18.80
2011,07,24,09,29,18.80
2011,07,24,09,30,18.80
2011,07,24,09,31,18.80
2011,07,24,09,32,18.80
2011,07,24,09,33,18.80
2011,07,24,09,34,18.90
2011,07,24,09,35,18.90
2011,07,24,09,36,18.90
2011,07,24,09,37,18.90
2011,07,24,09,38,18.90
2011,07,24,09,39,18.90
2011,07,24,09,40,18.90
2011,07,24,09,41,18.80
2011,07,24,09,42,18.80
2011,07,24,09,43,18.80
2011,07,24,09,44,18.90
2011,07,24,09,45,18.90
2011,07,24,09,46,18.90
2011,07,24,09,47,19.00
2011,07,24,09,48,19.00
2011,07,24,09,49,19.10
2011,07,24,09,50,19.20
2011,07,24,09,51,19.20
2011,07,24,09,52,19.30
2011,07,24,09,53,19.30
2011,07,24,09,54,19.30
2011,07,24,09,55,19.40
2011,07,24,09,56,19.40
2011,07,24,09,57,19.50
2011,07,24,09,58,19.60
2011,07,24,09,59,19.60
2011,07,24,10,00,19.70
2011,07,24,10,01,19.70
2011,07,24,10,02,19.70
2011,07,24,10,03,19.70
2011,07,24,10,04,19.70
2011,07,24,10,05,19.70
2011,07,24,10,06,19.80
2011,07,24,10,07,19.80
2011,07,24,10,08,19.80
2011,07,24,10,09,19.90
2011,07,24,10,10,19.90
2011,07,24,10,11,19.90
2011,07,24,10,12,19.90
2011,07,24,10,13,19.90
2011,07,24,10,14,19.90
2011,07,24,10,15,19.90
2011,07,24,10,16,19.90
2011,07,24,10,17,19.90
2011,07,24,10,18,19.90
2011,07,24,10,19,19.90
2011,07,24,10,20,20.00
2011,07,24,10,21,20.10
2011,07,24,10,22,20.10
2011,07,24,10,23,20.10
2011,07,24,10,24,20.20
2011,07,24,10,25,20.20
2011,07,24,10,26,20.10
2011,07,24,10,27,20.10
2011,07,24,10,28,20.10
2011,07,24,10,29,20.10
2011,07,24,10,30,20.10
2011,07,24,10,31,20.10
2011,07,24,10,33,20.10
2011,07,24,10,34,20.10
2011,07,24,10,35,20.20
2011,07,24,10,37,20.30
2011,07,24,10,38,20.30
2011,07,24,10,39,20.30
2011,07,24,10,40,20.30
2011,07,24,10,42,20.40
2011,07,24,10,43,20.60
2011,07,24,10,44,20.60
2011,07,24,10,45,20.60
2011,07,24,10,47,20.60
2011,07,24,10,48,20.60
2011,07,24,10,49,20.60
2011,07,24,10,50,20.50
2011,07,24,10,52,20.40
2011,07,24,10,53,20.40
2011,07,24,10,54,20.50
2011,07,24,10,56,20.60
2011,07,24,10,57,20.60
2011,07,24,10,58,20.60
2011,07,24,10,59,20.50
2011,07,24,11,00,20.50
2011,07,24,11,02,20.50
2011,07,24,11,03,20.60
2011,07,24,11,04,20.60
2011,07,24,11,05,20.60
2011,07,24,11,07,20.60
2011,07,24,11,08,20.60
2011,07,24,11,09,20.60
2011,07,24,11,11,20.60
2011,07,24,11,12,20.60
2011,07,24,11,13,20.70
2011,07,24,11,14,20.80
2011,07,24,11,16,20.80
2011,07,24,11,17,20.80
2011,07,24,11,18,20.90
2011,07,24,11,19,20.80
2011,07,24,11,20,20.90
2011,07,24,11,22,20.90
2011,07,24,11,23,20.90
2011,07,24,11,24,21.00
2011,07,24,11,25,21.10
2011,07,24,11,27,21.20
2011,07,24,11,28,21.30
2011,07,24,11,29,21.30
2011,07,24,11,30,21.40
2011,07,24,11,31,21.40
2011,07,24,11,33,21.40
2011,07,24,11,34,21.50
2011,07,24,11,35,21.60
2011,07,24,11,36,21.60
2011,07,24,11,38,21.60
2011,07,24,11,39,21.70
2011,07,24,11,40,21.70
2011,07,24,11,41,21.80
2011,07,24,11,43,21.80
2011,07,24,11,44,21.70
2011,07,24,11,45,21.70
2011,07,24,11,46,21.70
2011,07,24,11,48,21.70
2011,07,24,11,49,21.80
2011,07,24,11,50,21.80
2011,07,24,11,51,21.90
2011,07,24,11,53,21.90
2011,07,24,11,54,22.00
2011,07,24,11,55,22.00
2011,07,24,11,56,22.10
2011,07,24,11,58,22.10
2011,07,24,11,59,22.10
2011,07,24,12,00,22.20
2011,07,24,12,01,22.30
2011,07,24,12,03,22.30
2011,07,24,12,04,22.50
2011,07,24,12,05,22.60
2011,07,24,12,06,22.70
2011,07,24,12,08,22.70
2011,07,24,12,09,22.70
2011,07,24,12,10,22.70
2011,07,24,12,11,22.70
2011,07,24,12,13,22.60
2011,07,24,12,14,22.60
2011,07,24,12,15,22.60
2011,07,24,12,16,22.60
2011,07,24,12,18,22.60
2011,07,24,12,19,22.70
2011,07,24,12,20,22.70
2011,07,24,12,21,22.70
2011,07,24,12,23,22.80
2011,07,24,12,24,22.80
2011,07,24,12,25,22.80
2011,07,24,12,26,22.90
2011,07,24,12,28,23.10
2011,07,24,12,29,23.20
2011,07,24,12,30,23.30
2011,07,24,12,32,23.30
2011,07,24,12,33,23.40
2011,07,24,12,34,23.40
2011,07,24,12,35,23.50
2011,07,24,12,37,23.40
2011,07,24,12,38,23.40
2011,07,24,12,39,23.30
2011,07,24,12,40,23.20
2011,07,24,12,41,23.20
2011,07,24,12,43,23.20
2011,07,24,12,44,23.20
2011,07,24,12,45,23.20
2011,07,24,12,47,23.20
2011,07,24,12,48,23.30
2011,07,24,12,49,23.30
2011,07,24,12,50,23.40
2011,07,24,12,51,23.40
2011,07,24,12,53,23.40
2011,07,24,12,54,23.40
2011,07,24,12,55,23.40
2011,07,24,12,56,23.40
2011,07,24,12,58,23.60
2011,07,24,12,59,23.60
2011,07,24,13,00,23.60
2011,07,24,13,01,23.60
2011,07,24,13,03,23.60
2011,07,24,13,04,23.50
2011,07,24,13,05,23.60
2011,07,24,13,06,23.60
2011,07,24,13,08,23.60
2011,07,24,13,09,23.70
2011,07,24,13,10,23.70
2011,07,24,13,11,23.70
2011,07,24,13,12,23.70
2011,07,24,13,14,23.80
2011,07,24,13,15,23.80
2011,07,24,13,16,23.80
2011,07,24,13,17,23.80
2011,07,24,13,19,23.80
2011,07,24,13,20,23.90
2011,07,24,13,21,24.00
2011,07,24,13,23,24.10
2011,07,24,13,24,24.30
2011,07,24,13,25,24.30
2011,07,24,13,26,24.40
2011,07,24,13,28,24.40
2011,07,24,13,29,24.60
2011,07,24,13,30,24.60
2011,07,24,13,31,24.60
2011,07,24,13,32,24.70
2011,07,24,13,33,24.80
2011,07,24,13,34,24.90
2011,07,24,13,35,24.90
2011,07,24,13,36,24.90
2011,07,24,13,37,25.00
2011,07,24,13,38,25.10
2011,07,24,13,39,25.10
2011,07,24,13,40,25.10
2011,07,24,13,41,25.10
2011,07,24,13,42,25.10
2011,07,24,13,43,25.10
2011,07,24,13,44,25.10
2011,07,24,13,45,25.10
2011,07,24,13,46,25.20
2011,07,24,13,47,25.10
2011,07,24,13,48,25.10
2011,07,24,13,49,25.10
2011,07,24,13,50,25.10
2011,07,24,13,51,25.10
2011,07,24,13,52,25.00
2011,07,24,13,53,24.90
2011,07,24,13,54,24.90
2011,07,24,13,55,24.80
2011,07,24,13,56,24.70
2011,07,24,13,57,24.70
2011,07,24,13,58,24.70
2011,07,24,13,59,24.70
2011,07,24,14,00,24.70
2011,07,24,14,01,24.80
2011,07,24,14,02,24.80
2011,07,24,14,03,24.90
2011,07,24,14,04,24.90
2011,07,24,14,05,24.90
2011,07,24,14,06,24.90
2011,07,24,14,07,24.90
2011,07,24,14,08,24.90
2011,07,24,14,09,24.90
2011,07,24,14,10,25.00
2011,07,24,14,11,25.10
2011,07,24,14,12,25.10
2011,07,24,14,14,25.10
2011,07,24,14,15,25.10
2011,07,24,14,16,25.20
2011,07,24,14,17,25.20
2011,07,24,14,19,25.20
2011,07,24,14,20,25.30
2011,07,24,14,21,25.30
2011,07,24,14,22,25.20
2011,07,24,14,24,25.20
2011,07,24,14,25,25.20
2011,07,24,14,26,25.20
2011,07,24,14,27,25.20
2011,07,24,14,29,25.30
2011,07,24,14,30,25.40
2011,07,24,14,31,25.40
2011,07,24,14,32,25.40
2011,07,24,14,34,25.50
2011,07,24,14,35,25.50
2011,07,24,14,36,25.40
2011,07,24,14,37,25.40
2011,07,24,14,38,25.40
2011,07,24,14,39,25.40
2011,07,24,14,41,25.60
2011,07,24,14,42,25.70
2011,07,24,14,43,25.90
2011,07,24,14,45,26.10
2011,07,24,14,46,26.20
2011,07,24,14,47,26.40
2011,07,24,14,48,26.40
2011,07,24,14,50,26.40
2011,07,24,14,51,26.40
2011,07,24,14,52,26.50
2011,07,24,14,53,26.60
2011,07,24,14,54,26.40
2011,07,24,14,56,26.40
2011,07,24,14,57,26.30
2011,07,24,14,58,26.40
2011,07,24,14,59,26.40
2011,07,24,15,00,26.40
2011,07,24,15,01,26.50
2011,07,24,15,02,26.60
2011,07,24,15,03,26.60
2011,07,24,15,04,26.70
2011,07,24,15,06,26.70
2011,07,24,15,07,26.60
2011,07,24,15,08,26.60
2011,07,24,15,09,26.70
2011,07,24,15,10,26.70
2011,07,24,15,11,26.80
2011,07,24,15,12,26.90
2011,07,24,15,13,27.10
2011,07,24,15,15,27.20
2011,07,24,15,16,27.30
2011,07,24,15,17,27.30
2011,07,24,15,18,27.10
2011,07,24,15,20,26.90
2011,07,24,15,21,26.70
2011,07,24,15,22,26.30
2011,07,24,15,23,26.10
2011,07,24,15,24,25.90
2011,07,24,15,26,25.80
2011,07,24,15,27,25.80
2011,07,24,15,28,25.70
2011,07,24,15,29,25.60
2011,07,24,15,30,25.50
2011,07,24,15,32,25.40
2011,07,24,15,33,25.40
2011,07,24,15,34,25.20
2011,07,24,15,35,25.10
2011,07,24,15,37,25.00
2011,07,24,15,38,25.10
2011,07,24,15,39,25.20
2011,07,24,15,40,25.10
2011,07,24,15,42,25.10
2011,07,24,15,43,24.90
2011,07,24,15,44,24.80
2011,07,24,15,45,24.70
2011,07,24,15,47,24.70
2011,07,24,15,48,24.70
2011,07,24,15,49,24.70
2011,07,24,15,50,24.70
2011,07,24,15,51,24.80
2011,07,24,15,53,24.80
2011,07,24,15,54,24.70
2011,07,24,15,55,24.70
2011,07,24,15,57,24.70
2011,07,24,15,58,24.70
2011,07,24,15,59,24.80
2011,07,24,16,00,24.90
2011,07,24,16,01,25.00
2011,07,24,16,03,25.10
2011,07,24,16,04,25.10
2011,07,24,16,05,25.10
2011,07,24,16,06,25.10
2011,07,24,16,08,25.10
2011,07,24,16,09,25.00
2011,07,24,16,10,24.90
2011,07,24,16,11,24.90
2011,07,24,16,13,24.80
2011,07,24,16,14,24.80
2011,07,24,16,15,24.70
2011,07,24,16,16,24.70
2011,07,24,16,18,24.70
2011,07,24,16,19,24.70
2011,07,24,16,20,24.80
2011,07,24,16,21,24.90
2011,07,24,16,22,25.00
2011,07,24,16,23,25.10
2011,07,24,16,25,25.10
2011,07,24,16,26,25.20
2011,07,24,16,27,25.30
2011,07,24,16,29,25.30
2011,07,24,16,30,25.30
2011,07,24,16,31,25.40
2011,07,24,16,32,25.50
2011,07,24,16,33,25.60
2011,07,24,16,34,25.60
2011,07,24,16,35,25.60
2011,07,24,16,36,25.70
2011,07,24,16,37,25.70
2011,07,24,16,38,25.70
2011,07,24,16,39,25.70
2011,07,24,16,40,25.70
2011,07,24,16,41,25.60
2011,07,24,16,42,25.60
2011,07,24,16,43,25.60
2011,07,24,16,44,25.70
2011,07,24,16,45,25.70
2011,07,24,16,46,25.80
2011,07,24,16,47,25.90
2011,07,24,16,48,25.90
2011,07,24,16,49,26.00
2011,07,24,16,50,26.10
2011,07,24,16,51,26.10
2011,07,24,16,52,26.10
2011,07,24,16,53,26.10
2011,07,24,16,54,26.00
2011,07,24,16,55,25.90
2011,07,24,16,56,25.90
2011,07,24,16,57,25.90
2011,07,24,16,58,25.90
2011,07,24,16,59,26.00
2011,07,24,17,00,26.00
2011,07,24,17,01,26.00
2011,07,24,17,02,26.10
2011,07,24,17,03,26.10
2011,07,24,17,04,26.20
2011,07,24,17,05,26.20
2011,07,24,17,06,26.20
2011,07,24,17,07,26.20
2011,07,24,17,08,26.20
2011,07,24,17,09,26.20
2011,07,24,17,10,26.20
2011,07,24,17,11,26.10
2011,07,24,17,12,26.10
2011,07,24,17,13,26.20
2011,07,24,17,14,26.20
2011,07,24,17,15,26.10
2011,07,24,17,16,26.10
2011,07,24,17,17,26.10
2011,07,24,17,18,26.10
2011,07,24,17,19,26.00
2011,07,24,17,20,26.00
2011,07,24,17,21,26.00
2011,07,24,17,22,25.90
2011,07,24,17,23,25.90
2011,07,24,17,24,25.80
2011,07,24,17,25,25.70
2011,07,24,17,26,25.70
2011,07,24,17,27,25.70
2011,07,24,17,28,25.80
2011,07,24,17,29,25.80
2011,07,24,17,30,25.80
2011,07,24,17,32,25.80
2011,07,24,17,33,25.70
2011,07,24,17,34,25.70
2011,07,24,17,36,25.70
2011,07,24,17,37,25.60
2011,07,24,17,38,25.60
2011,07,24,17,39,25.60
2011,07,24,17,40,25.60
2011,07,24,17,41,25.60
2011,07,24,17,42,25.60
2011,07,24,17,43,25.50
2011,07,24,17,44,25.50
2011,07,24,17,45,25.50
2011,07,24,17,46,25.50
2011,07,24,17,48,25.50
2011,07,24,17,49,25.60
2011,07,24,17,50,25.70
2011,07,24,17,51,25.70
2011,07,24,17,53,25.80
2011,07,24,17,54,25.80
2011,07,24,17,55,25.90
2011,07,24,17,56,25.80
2011,07,24,17,57,25.80
2011,07,24,17,59,25.80
2011,07,24,18,00,25.90
2011,07,24,18,01,26.00
2011,07,24,18,03,26.00
2011,07,24,18,04,26.00
2011,07,24,18,05,26.10
2011,07,24,18,06,26.10
2011,07,24,18,07,26.10
2011,07,24,18,09,26.10
2011,07,24,18,10,26.00
2011,07,24,18,11,26.00
2011,07,24,18,12,25.90
2011,07,24,18,14,25.90
2011,07,24,18,15,25.90
2011,07,24,18,16,25.90
2011,07,24,18,17,25.80
2011,07,24,18,19,25.80
2011,07,24,18,20,25.80
2011,07,24,18,21,25.70
2011,07,24,18,22,25.70
2011,07,24,18,23,25.60
2011,07,24,18,24,25.60
2011,07,24,18,25,25.40
2011,07,24,18,26,25.40
2011,07,24,18,28,25.30
2011,07,24,18,29,25.10
2011,07,24,18,30,24.90
2011,07,24,18,31,24.90
2011,07,24,18,33,24.80
2011,07,24,18,34,24.80
2011,07,24,18,35,24.80
2011,07,24,18,37,24.80
2011,07,24,18,38,24.90
2011,07,24,18,39,24.90
2011,07,24,18,40,24.90
2011,07,24,18,42,24.90
2011,07,24,18,43,25.00
2011,07,24,18,44,25.00
2011,07,24,18,45,25.00
2011,07,24,18,46,25.00
2011,07,24,18,47,25.00
2011,07,24,18,48,24.90
2011,07,24,18,49,24.90
2011,07,24,18,50,24.80
2011,07,24,18,52,24.80
2011,07,24,18,53,24.70
2011,07,24,18,54,24.60
2011,07,24,18,55,24.50
2011,07,24,18,57,24.50
2011,07,24,18,58,24.40
2011,07,24,18,59,24.30
2011,07,24,19,00,24.20
2011,07,24,19,01,24.10
2011,07,24,19,02,24.10
2011,07,24,19,03,24.00
2011,07,24,19,04,23.90
2011,07,24,19,05,23.90
2011,07,24,19,06,23.80
2011,07,24,19,08,23.80
2011,07,24,19,09,23.70
2011,07,24,19,10,23.70
2011,07,24,19,11,23.70
2011,07,24,19,12,23.70
2011,07,24,19,13,23.70
2011,07,24,19,15,23.70
2011,07,24,19,16,23.60
2011,07,24,19,17,23.50
2011,07,24,19,18,23.40
2011,07,24,19,19,23.40
2011,07,24,19,20,23.40
2011,07,24,19,21,23.40
2011,07,24,19,22,23.30
2011,07,24,19,24,23.30
2011,07,24,19,25,23.30
2011,07,24,19,26,23.40
2011,07,24,19,27,23.40
2011,07,24,19,28,23.40
2011,07,24,19,30,23.40
2011,07,24,19,31,23.40
2011,07,24,19,32,23.30
2011,07,24,19,33,23.30
2011,07,24,19,35,23.20
2011,07,24,19,36,23.20
2011,07,24,19,37,23.10
2011,07,24,19,38,23.10
2011,07,24,19,40,23.10
2011,07,24,19,41,23.00
2011,07,24,19,42,23.00
2011,07,24,19,43,22.90
2011,07,24,19,44,22.90
2011,07,24,19,45,22.80
2011,07,24,19,46,22.80
2011,07,24,19,47,22.70
2011,07,24,19,49,22.60
2011,07,24,19,50,22.60
2011,07,24,19,51,22.40
2011,07,24,19,52,22.30
2011,07,24,19,53,22.30
2011,07,24,19,55,22.20
2011,07,24,19,56,22.20
2011,07,24,19,57,22.20
2011,07,24,19,58,22.10
2011,07,24,19,59,22.10
2011,07,24,20,00,22.10
2011,07,24,20,01,22.10
2011,07,24,20,02,22.10
2011,07,24,20,04,22.00
2011,07,24,20,05,21.90
2011,07,24,20,06,21.80
2011,07,24,20,07,21.80
2011,07,24,20,09,21.80
2011,07,24,20,10,21.70
2011,07,24,20,11,21.70
2011,07,24,20,12,21.70
2011,07,24,20,14,21.60
2011,07,24,20,15,21.60
2011,07,24,20,16,21.50
2011,07,24,20,17,21.40